Location: Armidale
(30.5016°S, 151.6662°E)
Time: 19:12:25
(UTC+10:00)

Envisat - Visible Passes

Search period start: 26 June 2022 00:00
Search period end: 06 July 2022 00:00
Orbit: 764 x 765 km, 98.2° (Epoch: 25 June)

Date Brightness Start Highest point End Pass type
(mag) Time Alt. Az. Time Alt. Az. Time Alt. Az.
27 Jun 5.6 17:31:19 10° SSW 17:34:39 18° WSW 17:37:58 10° WNW visible
02 Jul 5.8 17:45:44 10° SW 17:47:50 13° WSW 17:49:56 10° W visible
05 Jul 5.6 17:33:03 10° SSW 17:36:12 17° WSW 17:39:20 10° WNW visible
